sat.trackr.live / text

‹ back to catalog

STARLINK-32692

NORAD 62422 · 2024-249P

PAYLOAD ACTIVE UNKNOWN

§ Identity

Operator
Country
US
Launch date
2024-12-23
Launch site
AFETR
Launch vehicle
Mass (kg)
RCS (m²)

Purposes: comms

External: N2YO · Heavens-Above · Gunter

§ Orbital elements

Epoch: 2026-05-25T00:14:38.103936Z

Period
94.27 min
Inclination
43.0022°
Eccentricity
0.0001635
Mean motion
15.27579082 rev/d
Perigee alt
481.9 km
Apogee alt
484.2 km
Semi-major
6,861.2 km
B*
2.7663e-4
RAAN
251.0228°
Arg perigee
273.5468°
Mean anomaly
86.5197°
Rev number
7,939

§ Raw data

STARLINK-326921 62422U 24249P   26145.01016324  .00007357  00000+0  27663-3 0  99902 62422  43.0022 251.0228 0001635 273.5468  86.5197 15.27579082 79399

JSON: /api/v1/satellites/62422 · /tle

For live sub-satellite position, see the globe view (requires WebGL).

§ Visibility from observer

Set your observer location to see the next 7 days of passes ≥ 10°. The values pass through the URL so the page stays shareable.

No JS? Fill the form by hand. The geolocation button needs JavaScript.